Total_Precipitation_Accumulation
0.72 0.71 0.72 0.68 0.67 0.69 0.74 0.87 1.08 0.97 0.61 0.45 0.45 0.47 0.55 0.61 0.60 0.57 0.56 0.67 0.73 0.81 0.92 0.96 1.04 1.24 1.60 2.16 2.79 3.70 4.30 3.93 3.14 2.62 2.54 2.83 3.26 3.70
0.80 0.81 0.76 0.72 0.74 0.78 0.82 0.82 0.89 1.02 0.82 0.45 0.41 0.43 0.52 0.66 0.75 0.65 0.61 0.74 0.77 0.79 0.81 0.84 0.92 1.09 1.33 1.66 2.10 2.70 3.60 4.05 3.80 3.28 2.90 2.99 3.21 3.59
0.83 0.85 0.81 0.77 0.85 0.89 0.93 0.93 0.88 0.91 0.94 0.55 0.44 0.49 0.63 0.74 0.81 0.76 0.74 0.73 0.73 0.77 0.79 0.83 0.87 0.99 1.20 1.42 1.66 2.04 2.69 3.43 3.85 3.86 3.54 3.27 3.21 3.28
0.88 0.89 0.88 0.85 0.88 0.92 1.00 0.99 0.91 0.86 0.92 0.77 0.59 0.63 0.72 0.81 0.85 0.83 0.81 0.79 0.70 0.74 0.75 0.86 0.91 0.98 1.13 1.30 1.46 1.68 2.07 2.61 3.17 3.59 3.71 3.38 3.18 3.21
0.85 0.90 0.93 0.94 0.89 0.89 0.99 1.04 0.98 0.93 0.95 0.95 0.76 0.69 0.78 0.89 1.00 0.99 0.94 0.92 0.81 0.79 0.80 0.88 0.97 0.98 1.05 1.19 1.38 1.53 1.70 1.89 2.28 2.91 3.51 3.55 3.29 3.23
0.77 0.79 0.89 1.02 1.03 1.04 1.09 1.07 1.09 1.14 1.12 1.11 0.96 0.84 0.89 0.98 1.12 1.17 1.14 1.07 1.01 0.91 0.94 0.99 1.05 1.07 1.04 1.04 1.11 1.24 1.41 1.70 2.04 2.48 2.96 3.34 3.35 3.25
0.76 0.71 0.81 1.05 1.24 1.41 1.47 1.35 1.36 1.49 1.46 1.41 1.29 1.13 1.04 1.09 1.19 1.18 1.24 1.17 1.15 1.09 1.05 1.05 1.00 0.97 0.96 0.97 1.01 1.08 1.17 1.39 1.68 2.01 2.43 2.80 3.06 3.19
0.85 0.75 0.79 1.03 1.18 1.31 1.45 1.44 1.48 1.67 1.78 1.72 1.57 1.35 1.06 0.96 1.03 1.22 1.42 1.57 1.50 1.26 1.17 1.17 1.01 0.98 0.94 0.87 0.97 1.05 1.12 1.26 1.48 1.72 2.02 2.34 2.64 2.95
0.86 0.81 0.83 0.93 1.05 1.08 1.18 1.23 1.26 1.44 1.68 1.78 1.73 1.36 1.14 1.03 1.22 1.44 1.52 1.63 1.51 1.43 1.44 1.51 1.22 1.09 0.98 0.99 1.09 1.06 1.12 1.18 1.29 1.45 1.69 1.93 2.20 2.53
0.91 0.85 0.78 0.82 0.95 1.10 1.18 1.15 1.08 1.15 1.39 1.59 1.77 1.57 1.36 1.38 1.64 1.88 1.99 2.02 1.78 1.65 1.61 1.81 1.50 1.25 1.13 1.09 1.15 1.08 1.05 1.08 1.14 1.23 1.40 1.61 1.82 2.12
0.94 0.89 0.79 0.75 0.93 1.10 1.08 1.06 0.99 1.03 1.16 1.36 1.52 1.58 1.59 1.74 2.03 2.42 2.58 2.57 2.31 1.99 1.78 1.80 1.74 1.58 1.53 1.48 1.38 1.26 1.09 1.02 1.04 1.09 1.19 1.34 1.56 1.90
0.96 0.92 0.98 0.96 1.05 1.07 0.98 1.04 1.13 1.02 0.97 1.02 1.07 1.13 1.18 1.33 1.73 2.17 2.49 2.60 2.38 2.29 2.00 1.79 1.81 1.84 2.18 2.01 1.65 1.35 1.17 1.10 1.04 1.04 1.07 1.11 1.28 1.44
0.98 0.98 0.93 1.07 1.09 1.06 1.03 1.01 1.17 1.11 1.01 1.09 1.07 1.00 1.00 1.10 1.27 1.61 2.12 2.49 2.49 2.27 2.01 1.99 2.12 1.84 1.98 2.09 1.86 1.49 1.16 1.05 0.98 1.02 1.03 1.03 1.07 1.14
0.96 0.89 0.87 1.03 1.08 1.11 1.07 1.11 1.16 1.16 1.09 1.10 1.03 0.96 0.96 1.05 1.18 1.38 1.66 2.00 2.15 2.06 1.89 2.01 2.35 2.03 1.78 1.68 1.68 1.66 1.34 1.12 0.97 0.93 0.92 1.08 1.15 1.15
1.05 1.09 1.05 1.13 1.17 1.09 1.05 1.09 1.06 1.01 1.08 1.12 1.00 0.86 0.84 0.94 1.04 1.15 1.28 1.50 1.71 1.78 1.80 1.88 2.12 2.14 1.96 1.69 1.40 1.36 1.38 1.38 1.14 0.99 0.94 0.93 0.93 0.96
1.19 1.18 1.20 1.21 1.18 1.12 1.05 0.95 0.88 0.90 1.00 1.02 0.95 0.85 0.77 0.81 0.93 1.04 1.15 1.27 1.53 1.69 1.75 1.88 2.12 2.33 2.25 1.67 1.40 1.24 1.12 1.37 1.33 1.11 1.01 0.97 0.89 0.79
1.29 1.33 1.28 1.23 1.22 1.11 0.96 0.85 0.81 0.86 0.91 0.88 0.88 0.88 0.84 0.83 0.85 0.93 1.10 1.22 1.40 1.52 1.69 1.96 2.22 2.33 2.36 2.09 1.75 1.35 1.07 1.07 1.17 1.12 1.07 1.08 1.07 0.92
1.32 1.31 1.15 1.00 0.96 0.92 0.86 0.80 0.77 0.77 0.75 0.79 0.85 0.85 0.84 0.85 0.86 0.88 1.01 1.18 1.32 1.39 1.48 1.70 2.07 2.35 2.52 2.52 2.05 1.49 1.18 1.12 1.23 1.22 1.10 1.08 1.18 1.10
1.11 0.99 0.90 0.84 0.80 0.77 0.74 0.72 0.72 0.68 0.68 0.74 0.79 0.80 0.79 0.83 0.87 0.89 0.96 1.09 1.22 1.33 1.45 1.56 1.80 2.12 2.28 2.43 2.44 1.83 1.37 1.23 1.32 1.47 1.32 1.08 1.05 1.10
0.84 0.82 0.81 0.79 0.82 0.83 0.80 0.76 0.72 0.71 0.72 0.70 0.70 0.72 0.76 0.83 0.86 0.86 0.90 1.03 1.13 1.24 1.37 1.49 1.69 1.91 2.03 1.98 2.08 2.10 1.88 1.49 1.34 1.50 1.50 1.30 1.18 1.26
0.77 0.76 0.76 0.79 0.84 0.86 0.80 0.77 0.75 0.71 0.67 0.66 0.65 0.64 0.68 0.76 0.79 0.77 0.84 0.95 1.04 1.13 1.23 1.34 1.53 1.71 1.86 1.88 1.80 1.80 2.00 1.99 1.55 1.41 1.46 1.46 1.40 1.39
0.76 0.78 0.77 0.79 0.83 0.86 0.83 0.79 0.77 0.73 0.67 0.64 0.62 0.61 0.62 0.69 0.74 0.75 0.81 0.88 0.92 0.99 1.10 1.24 1.40 1.59 1.78 1.90 1.82 1.68 1.81 2.03 2.01 1.74 1.53 1.40 1.37 1.34
0.81 0.83 0.82 0.80 0.80 0.82 0.82 0.78 0.75 0.72 0.68 0.65 0.62 0.61 0.63 0.67 0.68 0.74 0.79 0.82 0.86 0.91 1.01 1.20 1.37 1.51 1.70 1.83 1.84 1.70 1.65 1.77 1.81 1.78 1.85 1.59 1.18 0.93